Wind_Speed
10 10 11 12 12 12 14 14 17 17 17 18 20 20 20 21 18 16 13 5 5 10 18 22 18 12 9 4 3 3 2 2 4 3 6 6 4 8 8 20 7 12 10 12 43
12 11 12 13 13 14 14 15 16 18 19 20 20 21 20 21 21 15 5 7 11 16 19 20 19 16 7 4 3 3 3 7 5 4 6 4 6 11 6 10 2 8 13 26 42
12 13 12 13 14 14 15 15 17 18 19 20 22 22 20 20 18 2 10 10 13 15 16 13 12 12 4 5 2 2 4 3 8 17 17 3 5 6 13 3 13 25 28 44 44
14 14 14 14 15 15 16 16 17 17 19 20 21 22 20 17 6 4 13 8 10 11 13 12 11 11 4 3 3 4 8 7 7 12 8 4 8 5 11 6 18 27 32 48 45
17 17 18 16 18 18 16 16 16 17 17 19 21 22 22 13 21 19 7 10 11 13 11 14 11 6 4 4 5 5 4 13 15 17 12 5 6 6 11 8 14 30 36 45 44
20 19 21 20 19 20 18 18 16 16 17 19 21 21 20 11 12 6 12 19 18 17 13 14 8 10 11 5 1 5 11 16 14 15 9 5 2 2 4 12 25 31 39 41 42
8 9 11 12 14 18 19 19 16 16 17 18 19 20 23 35 23 23 26 25 20 21 22 16 16 10 8 7 5 9 7 7 6 7 4 8 1 6 10 21 29 31 36 37 39
17 18 17 14 15 16 19 19 18 21 21 21 21 21 19 23 26 28 17 16 14 17 22 20 17 14 10 9 9 5 3 4 3 2 4 9 5 5 21 28 27 31 35 38 39
10 10 8 9 11 14 16 20 16 20 21 21 22 14 18 12 11 9 12 9 5 7 10 13 15 12 6 1 4 3 4 6 8 6 4 5 5 7 27 29 28 32 37 40 39
10 16 15 13 14 15 17 19 16 16 14 13 11 8 19 19 15 15 8 10 11 9 6 8 8 3 2 3 6 5 4 4 6 4 2 7 8 5 28 24 28 31 32 37 43
16 13 17 16 14 14 14 10 5 2 8 8 9 13 18 16 16 14 10 7 10 7 6 5 3 7 10 10 6 3 4 8 11 11 3 12 9 9 21 22 17 22 28 36 45
9 7 10 14 12 11 9 5 6 11 14 23 26 32 37 35 18 34 23 9 6 8 3 2 11 10 8 6 7 7 8 13 10 15 7 10 10 11 11 23 34 35 36 37 38
10 10 9 10 7 4 2 5 11 10 7 14 32 27 38 25 29 40 18 7 6 5 9 14 7 6 7 9 9 11 9 10 11 14 5 6 7 7 5 9 30 29 37 31 34
12 11 14 14 11 8 7 8 8 10 4 7 5 8 12 13 8 31 36 23 7 15 11 9 14 14 12 11 7 12 5 9 7 6 9 5 13 10 5 8 12 27 29 34 43
18 15 13 12 7 5 5 10 5 7 6 3 4 4 5 14 10 1 20 22 22 12 7 8 5 8 11 12 5 6 4 7 10 8 6 7 5 6 5 6 13 18 31 38 47
16 17 15 12 15 13 12 6 1 4 8 6 2 4 1 10 6 7 5 10 11 10 14 13 11 3 6 4 4 2 4 11 4 2 12 7 7 10 10 12 6 16 31 41 50
14 13 16 14 9 10 8 1 2 5 4 1 6 8 6 3 4 6 2 3 1 3 5 5 17 16 15 14 11 7 1 4 4 2 11 8 9 15 8 8 14 14 28 37 44
15 14 13 17 14 8 4 4 7 4 6 11 7 13 4 9 5 6 5 2 12 4 4 3 5 5 5 8 8 4 13 7 9 6 7 5 9 6 8 13 15 13 23 32 39
14 14 16 10 14 12 5 5 6 5 5 7 8 3 1 5 6 6 6 3 5 9 3 4 4 7 3 3 1 4 4 13 15 16 9 10 20 16 5 7 6 13 12 26 44
11 11 14 8 10 14 3 15 7 8 7 5 4 5 6 10 8 7 3 5 4 3 3 2 6 4 8 7 3 4 4 2 3 4 10 6 7 10 9 9 9 9 12 17 30
7 4 1 7 13 9 9 7 3 17 9 3 5 9 7 5 5 6 5 3 7 4 4 4 5 5 7 3 5 6 2 4 3 3 3 6 6 3 7 8 12 13 15 15 27
3 2 1 15 6 4 9 3 3 9 7 2 3 3 2 2 4 6 8 3 16 9 5 3 3 5 8 11 10 2 4 3 3 4 4 5 16 3 7 8 11 15 18 7 18
2 4 3 19 3 6 4 2 3 2 1 1 3 1 3 1 3 6 3 6 9 5 5 3 1 4 6 3 5 5 3 4 2 4 4 4 9 10 18 16 20 18 21 7 13
2 1 3 6 3 2 4 3 3 4 6 8 4 7 2 3 4 3 4 2 11 6 13 4 4 6 10 7 11 14 16 11 5 5 9 10 18 20 20 24 21 20 21 18 13
4 2 2 3 3 2 4 1 4 3 6 4 4 4 3 4 3 5 3 2 3 4 2 3 4 4 12 11 12 17 18 18 14 12 7 11 14 24 22 23 24 29 28 22 24
4 2 2 5 7 3 5 1 3 6 6 5 5 8 7 4 7 6 3 2 4 3 2 3 4 4 17 17 11 15 20 24 16 18 20 24 23 22 32 35 27 25 21 21 24
11 5 2 4 4 1 2 3 2 4 5 7 4 3 3 1 6 9 13 13 8 5 2 3 2 1 13 18 12 10 21 16 20 22 15 15 19 18 19 20 19 26 28 27 29
Wind_Direction
276 282 289 293 299 305 310 313 319 324 325 324 321 322 324 320 319 330 334 320 322 325 325 327 332 325 319 277 237 200 65 206 247 213 260 327 155 146 146 143 187 196 189 190 170
275 277 281 290 295 303 308 311 315 320 320 321 318 318 324 322 321 324 41 5 335 326 325 329 331 337 328 280 262 146 159 211 219 263 286 309 164 153 145 142 151 158 189 174 169
273 279 284 288 293 299 303 310 310 314 320 319 317 318 322 327 324 166 1 344 329 331 329 329 322 337 304 306 267 263 219 218 280 287 281 240 151 177 133 226 204 175 165 170 175
269 276 281 287 292 293 299 303 307 313 319 322 321 319 323 323 290 217 311 287 302 326 327 318 317 320 291 300 290 313 260 263 295 320 314 221 165 195 179 202 220 192 177 173 180
268 274 280 284 286 287 295 300 304 310 316 316 320 323 325 303 273 294 268 255 288 301 313 315 317 317 270 282 304 208 270 311 308 305 308 217 211 199 224 264 190 175 174 177 182
273 279 282 288 296 300 298 294 298 307 308 309 313 315 315 278 303 283 280 285 275 280 277 286 277 307 282 277 195 285 301 297 301 293 279 192 258 11 214 176 166 174 176 182 186
254 262 269 281 290 287 288 294 294 298 298 300 304 305 298 275 290 282 278 279 272 268 265 259 273 276 313 306 287 289 297 301 237 250 231 156 5 237 182 171 164 171 177 186 192
297 296 285 293 297 296 290 284 282 289 283 287 293 297 275 295 289 282 288 279 270 262 258 260 258 271 248 275 314 334 284 295 256 138 250 158 242 227 179 171 173 179 186 194 198
320 325 320 293 283 291 287 288 279 284 282 282 285 276 273 287 263 305 273 273 264 250 273 232 248 234 240 240 330 269 252 252 298 214 231 176 219 251 187 186 181 187 194 198 201
331 325 319 314 309 303 306 294 290 288 282 271 257 275 260 273 266 263 313 232 254 247 232 186 198 186 91 117 237 223 233 244 250 318 30 302 261 226 196 193 198 198 193 194 202
289 318 291 308 328 324 325 340 335 293 318 257 248 247 268 267 272 254 265 268 228 232 189 207 163 211 211 211 236 296 279 276 272 274 291 273 259 264 202 209 210 203 199 197 203
241 271 276 267 293 324 349 29 40 313 292 279 266 260 257 263 283 256 257 248 185 220 203 259 234 229 222 224 228 248 263 278 283 277 191 264 259 256 188 210 209 203 202 201 196
250 249 249 245 241 304 339 16 350 333 265 271 258 253 247 249 234 252 242 219 198 205 211 222 219 179 194 250 251 251 241 260 257 283 238 261 272 249 239 231 219 215 212 203 201
272 269 260 259 281 265 257 319 340 1 311 278 245 265 236 222 267 251 239 223 218 221 230 243 241 244 254 246 213 266 213 244 254 290 282 153 287 256 240 224 197 216 208 204 206
272 264 266 271 256 280 258 298 324 32 320 247 256 348 175 175 317 101 227 203 223 216 177 219 204 205 221 235 229 250 301 272 277 264 298 258 267 262 194 245 217 215 209 207 212
277 272 266 265 266 268 272 298 102 69 250 296 7 360 228 242 294 316 143 191 221 228 254 253 280 248 198 261 257 263 323 304 252 181 261 245 207 239 227 224 238 220 212 208 212
278 277 258 246 249 255 269 221 85 197 310 306 344 333 311 340 359 6 51 176 153 173 233 241 241 248 255 268 268 248 87 297 290 191 256 187 234 259 233 236 221 227 216 213 210
272 268 261 242 232 236 196 67 214 250 268 319 343 316 336 25 0 5 19 72 29 11 16 346 324 177 342 220 232 244 219 213 243 232 271 245 242 248 211 230 249 248 246 217 206
280 266 269 248 225 215 204 194 217 200 253 360 332 276 175 8 9 21 35 73 52 33 38 334 258 322 353 341 155 289 201 229 250 259 276 255 270 280 283 275 287 298 287 218 214
289 281 273 239 212 195 205 232 206 221 340 350 320 321 29 356 5 17 336 27 91 13 119 58 303 298 323 333 268 202 227 269 234 247 244 238 263 261 318 304 292 275 281 231 213
279 290 192 209 177 177 219 227 255 264 299 309 276 258 285 304 316 316 320 345 86 332 241 213 194 307 351 274 332 335 313 348 352 210 240 286 253 298 311 324 311 304 293 239 207
230 285 351 173 157 208 229 201 266 279 314 333 299 291 266 62 276 252 247 207 357 337 316 178 268 252 243 263 279 111 43 37 151 298 306 289 262 113 55 10 14 5 354 273 214
243 269 266 184 182 214 281 287 276 312 195 231 276 290 40 88 311 245 270 352 29 38 31 323 300 314 310 97 38 81 165 145 197 223 224 274 276 346 335 341 342 344 348 298 218
234 293 249 225 245 185 206 236 222 224 230 240 229 236 283 325 219 280 301 295 342 331 319 241 208 221 262 284 314 294 295 286 238 244 272 237 286 299 315 314 310 318 328 318 237
223 250 255 286 279 254 214 275 175 199 267 319 320 160 207 274 263 268 243 290 218 282 354 27 273 257 269 254 257 275 286 290 262 244 242 298 275 279 283 287 287 299 302 291 281
195 242 339 299 305 162 212 186 206 220 209 246 244 272 280 246 211 259 292 219 249 311 76 315 265 290 285 279 248 258 265 264 254 256 262 256 263 260 267 274 282 285 287 269 256
212 214 287 306 324 26 224 200 70 30 281 248 304 298 282 301 315 300 282 261 237 226 220 232 219 106 279 284 289 259 243 257 262 264 257 253 246 260 256 263 281 290 281 276 262
Height
1531 1531 1531 1531 1529 1529 1528 1526 1526 1524 1521 1519 1518 1515 1513 1509 1507 1506 1503 1503 1502 1500 1498 1495 1494 1491 1489 1489 1488 1487 1496 1503 1492 1488 1479 1473 1474 1475 1477 1480 1485 1484 1482 1482 1489
1530 1529 1529 1529 1528 1527 1526 1525 1524 1523 1521 1517 1515 1514 1512 1509 1505 1503 1503 1503 1501 1500 1497 1494 1492 1489 1488 1488 1487 1486 1495 1491 1480 1477 1474 1472 1471 1473 1477 1479 1483 1482 1483 1483 1489
1528 1528 1527 1526 1526 1524 1524 1523 1522 1521 1518 1516 1514 1512 1511 1509 1505 1502 1501 1501 1499 1498 1497 1495 1494 1492 1488 1487 1486 1484 1486 1479 1476 1473 1472 1470 1471 1471 1474 1480 1474 1473 1477 1482 1488
1525 1526 1525 1525 1524 1522 1522 1521 1520 1518 1517 1514 1513 1511 1510 1509 1510 1500 1499 1499 1498 1497 1497 1495 1494 1492 1490 1487 1484 1487 1478 1477 1475 1472 1472 1469 1468 1470 1470 1468 1469 1471 1471 1475 1483
1522 1523 1523 1523 1521 1520 1520 1518 1518 1516 1514 1513 1511 1510 1508 1507 1499 1499 1497 1496 1496 1495 1495 1495 1494 1492 1490 1484 1483 1482 1477 1475 1473 1470 1469 1468 1465 1466 1467 1466 1466 1470 1474 1477 1482
1520 1520 1520 1521 1520 1518 1517 1516 1515 1513 1512 1511 1510 1508 1507 1503 1495 1495 1493 1493 1492 1492 1493 1494 1493 1492 1488 1484 1483 1477 1475 1472 1470 1468 1467 1468 1468 1467 1466 1465 1468 1470 1473 1477 1480
1517 1517 1517 1518 1517 1517 1516 1513 1512 1510 1509 1508 1507 1505 1502 1491 1492 1491 1489 1486 1487 1488 1487 1489 1490 1491 1488 1483 1480 1476 1476 1469 1466 1464 1463 1465 1470 1467 1465 1467 1468 1471 1474 1477 1479
1514 1513 1515 1515 1515 1514 1512 1509 1508 1506 1505 1504 1504 1502 1492 1487 1486 1482 1483 1479 1480 1481 1483 1484 1487 1487 1486 1483 1480 1478 1476 1478 1462 1461 1460 1463 1476 1462 1463 1465 1467 1469 1471 1474 1475
1512 1511 1511 1512 1511 1509 1507 1506 1503 1501 1499 1500 1500 1499 1486 1482 1479 1478 1479 1476 1478 1480 1479 1481 1483 1483 1483 1485 1490 1482 1486 1479 1469 1458 1459 1461 1469 1458 1461 1462 1462 1464 1466 1469 1473
1509 1510 1510 1509 1508 1506 1504 1502 1499 1496 1494 1495 1496 1500 1483 1478 1476 1476 1476 1474 1476 1477 1479 1478 1479 1481 1483 1489 1497 1485 1484 1476 1473 1461 1460 1462 1463 1458 1457 1459 1458 1459 1462 1464 1467
1505 1506 1508 1508 1506 1503 1500 1499 1499 1496 1493 1491 1491 1486 1478 1474 1473 1472 1472 1472 1473 1476 1477 1475 1481 1480 1478 1479 1477 1475 1478 1479 1467 1458 1461 1461 1459 1452 1453 1457 1459 1461 1461 1460 1461
1502 1503 1504 1505 1505 1504 1500 1501 1502 1503 1490 1484 1480 1477 1473 1472 1472 1466 1469 1472 1470 1474 1474 1478 1476 1467 1469 1474 1477 1476 1478 1475 1464 1454 1462 1457 1455 1448 1449 1448 1447 1447 1450 1453 1458
1502 1501 1502 1503 1504 1503 1502 1502 1501 1498 1493 1473 1467 1461 1461 1462 1459 1453 1465 1464 1466 1469 1470 1471 1464 1461 1466 1470 1474 1471 1474 1471 1470 1456 1454 1453 1451 1444 1438 1438 1439 1443 1444 1451 1455
1499 1499 1501 1502 1504 1500 1502 1501 1500 1498 1496 1473 1462 1454 1453 1457 1454 1447 1451 1460 1460 1460 1463 1464 1459 1459 1461 1464 1467 1471 1461 1462 1463 1464 1466 1450 1452 1438 1434 1435 1435 1436 1439 1441 1443
1498 1498 1499 1500 1500 1499 1501 1500 1499 1501 1515 1462 1456 1454 1451 1453 1449 1441 1443 1450 1450 1454 1458 1455 1453 1456 1458 1456 1458 1463 1457 1460 1458 1462 1460 1449 1464 1436 1428 1433 1428 1425 1429 1431 1433
1495 1495 1495 1497 1497 1498 1498 1500 1501 1509 1509 1464 1454 1455 1454 1451 1448 1445 1443 1447 1449 1454 1451 1450 1450 1452 1452 1452 1454 1455 1458 1456 1457 1461 1459 1447 1456 1422 1425 1419 1417 1414 1417 1418 1421
1491 1492 1492 1492 1495 1495 1496 1500 1510 1507 1474 1464 1464 1461 1456 1452 1448 1447 1445 1448 1452 1458 1458 1449 1447 1446 1448 1452 1452 1455 1465 1480 1475 1473 1449 1436 1442 1409 1411 1407 1405 1403 1406 1410 1414
1489 1488 1487 1488 1492 1494 1496 1502 1509 1487 1476 1466 1466 1460 1457 1457 1455 1451 1450 1455 1457 1453 1456 1459 1458 1445 1447 1447 1450 1448 1453 1464 1467 1463 1451 1437 1430 1413 1400 1397 1398 1400 1400 1403 1408
1486 1485 1483 1487 1489 1492 1496 1502 1493 1484 1476 1473 1468 1464 1460 1462 1462 1457 1457 1460 1464 1465 1466 1463 1457 1447 1445 1447 1446 1446 1450 1441 1451 1447 1456 1431 1407 1400 1400 1399 1398 1396 1396 1396 1397
1484 1484 1482 1484 1486 1490 1494 1483 1480 1476 1474 1475 1479 1468 1468 1470 1467 1467 1461 1460 1467 1469 1467 1471 1471 1454 1448 1445 1439 1440 1437 1447 1449 1457 1450 1429 1427 1413 1406 1403 1398 1396 1392 1391 1393
1485 1483 1481 1479 1484 1489 1485 1481 1477 1475 1479 1479 1473 1475 1471 1474 1475 1473 1468 1464 1467 1470 1467 1467 1470 1462 1458 1452 1448 1444 1441 1444 1443 1446 1448 1438 1425 1406 1405 1405 1403 1396 1393 1392 1391
1484 1483 1478 1480 1485 1483 1479 1478 1477 1477 1477 1477 1475 1476 1475 1473 1473 1474 1470 1468 1466 1468 1468 1467 1469 1470 1461 1449 1446 1451 1456 1459 1462 1456 1456 1452 1411 1409 1411 1411 1406 1401 1398 1397 1397
1482 1480 1478 1479 1486 1480 1478 1476 1477 1478 1479 1479 1478 1476 1475 1477 1480 1471 1468 1468 1469 1468 1470 1469 1473 1477 1460 1454 1448 1452 1459 1463 1468 1467 1454 1449 1421 1408 1411 1411 1411 1409 1404 1402 1401
1481 1482 1478 1478 1477 1476 1476 1476 1477 1476 1477 1477 1475 1475 1477 1477 1475 1472 1471 1469 1469 1469 1467 1467 1468 1469 1465 1460 1458 1456 1452 1451 1457 1459 1446 1441 1433 1423 1418 1414 1411 1408 1408 1407 1404
1481 1480 1479 1480 1475 1476 1475 1474 1473 1476 1476 1474 1475 1474 1478 1482 1477 1473 1470 1469 1469 1467 1466 1467 1476 1464 1457 1459 1461 1455 1451 1448 1448 1445 1442 1434 1436 1423 1419 1413 1408 1405 1405 1405 1403
1481 1480 1478 1476 1474 1475 1475 1474 1476 1476 1478 1476 1476 1475 1475 1476 1476 1475 1471 1471 1470 1467 1467 1468 1470 1465 1459 1453 1457 1458 1450 1437 1440 1438 1432 1430 1429 1421 1411 1408 1406 1402 1401 1400 1397
1478 1478 1479 1477 1475 1476 1475 1473 1473 1473 1473 1472 1474 1475 1472 1471 1470 1469 1467 1466 1466 1466 1468 1470 1470 1473 1459 1447 1449 1453 1434 1433 1429 1423 1422 1419 1410 1405 1404 1401 1401 1399 1393 1391 1388